Location: Banios
(43.0451°N, 0.2335°E)
Time: 07:38:22
(UTC+00:00)

NOSS 3-2 (C) - Visible Passes

Search period start: 09 May 2021 00:00
Search period end: 19 May 2021 00:00
Orbit: 783 x 1429 km, 63.4° (Epoch: 11 April)

Date Brightness Start Highest point End Pass type
(mag) Time Alt. Az. Time Alt. Az. Time Alt. Az.
09 May 5.6 04:08:45 10° SSE 04:12:32 19° ESE 04:16:35 10° ENE visible
12 May 5.1 03:44:19 10° SSE 03:48:51 27° ESE 03:53:48 10° NE visible
13 May 5.6 03:01:33 10° SE 03:04:35 15° ESE 03:07:49 10° ENE visible
15 May 4.5 03:20:13 10° S 03:25:13 37° ESE 03:30:48 10° NE visible
16 May 5.2 02:36:47 10° SSE 02:40:53 21° ESE 02:45:18 10° ENE visible
17 May 5.6 01:54:49 10° ESE 01:56:41 12° ESE 01:58:35 10° E visible
17 May 3.4 03:40:41 10° SSW 03:46:14 83° ESE 03:52:36 10° NE visible
18 May 3.9 02:57:17 15° S 03:01:38 51° ESE 03:07:38 10° NE visible
